OBJECT F, 61232

Orbit data source: Space-Track

You're viewing an Uncataloged Satellite

Recently launched and/or uncataloged satellites may have evolving metadata. Metadata may include but not limited to: Owner, Maufacturer, Bus, Motor, and Mission.

OBJECT F, 61232 is a satellite owned by Guoxing (CN) in SSO that was launched on Tue, 24 Sep 2024 UTC via a JIELONG-3 launch vehicle from the Yellow Sea Launch Area, China (YSLA). Unknown objects in Earth's orbit typically refer to objects detected orbiting the Earth but have not yet been identified or cataloged. These objects could be anything from previously untracked satellites, spent rocket stages, debris from satellite collisions, or even natural meteoroids temporarily captured by Earth's gravity.

Loading next visibility...
Identifier
61232, 2024-173F
Orbit
SSO
Last TLE update
7 hours ago
Origin
Flag of CNGUOX (CN / PRC)
Manufacturer
GUOX/HISTAR
Mission
Operational Commercial Technology
Bus & Motor
XSD, Unknown motor
Mass
~25 kg wet, ~25 kg dry
Launch date (UTC)
2024-09-24 (10 months ago)
Launch vehicle
JIELONG-3
Launch site
Yellow Sea Launch Area, China (YSLA)
Object type
Unknown
Shape & HBR
Box + 3 Pan, 0.1 m
Radar Cross Section
0.135 m², Medium (>0.1 m² and < 1m²)

Expand to show TLE details & history

TLE from 7 hours ago
0 OBJECT F
1 61232U 24173F   25199.19708204  .00013693  00000-0  26969-3 0  9995
2 61232  97.3748 279.4335 0007080 292.3984  67.6516 15.47322795 45576
Epoch: 2025-07-18T04:43Z
TLE epoch observation values (Epoch: 2025-07-18T04:43:47.888Z)
Latitude
0.00004°
Longitude
-87.76804°
Altitude
425.861 km
Speed
7.657 km/s
True Right ascension
18h 37m 44s
True Declination
0° 00' 00"
Sunlit
Object was in full shadow at epoch
Visualization orbit readout
Latitude
39.94926°
Longitude
98.71004°
Altitude
434.573 km
Speed
7.652 km/s
Apparent Right ascension
09h 34m 44s
Apparent Declination
2° 03' 33"
Sunlit
Object is in daylight
Visualization observer readout
Local Sidereal Time
00:18:05
Azimuth
51.884° ENE
Elevation
-33.838°
Doppler factor
1
Orbital elements
Apogee altitude
426.304 km
Perigee altitude
416.676 km
Semi-major axis
6,799.627 km
Eccentricity
0.00071
Inclination
97.3748°
RAAN
279.4335°
Arg. of periapsis
292.3984°
True anomaly
67.72666°
Mean anomaly
67.6516°
Eccentric anomaly
67.68913°
Mean motion
3.87093 °/min
Orbital period
93 mins
BSTAR
0.00026969
Loading maneuver chart data...
Loading SW <> Apogee altitude chart data...
Loading historical data...
Loading historical data...
Loading historical data...
Loading historical data...
Loading historical data...
Loading historical data...
Loading historical data...
|